Wind_Speed
18 17 14 15 14 12 12 11 16 16 16 19 24 24 20 17 18 16 17 15 17 17 23 27 27 25 20 15 14 15 11 13 10 7 11 14 12 12 12 10 7 4 6 8 7
17 18 16 14 15 13 12 13 16 17 16 14 22 26 20 17 19 18 18 17 17 19 23 26 25 24 21 16 17 15 13 14 11 4 2 12 10 8 8 6 4 4 5 7 9
18 18 18 16 15 15 13 10 15 16 12 15 20 26 21 19 20 20 20 21 20 23 26 28 26 23 22 20 17 13 15 14 9 7 3 9 9 7 7 5 3 5 6 8 9
20 18 20 18 17 18 15 13 13 19 12 17 19 23 24 20 22 23 23 25 22 23 26 26 24 18 21 20 16 11 10 10 12 1 5 7 5 7 8 6 8 9 6 7 9
21 20 21 21 19 19 19 17 15 17 16 16 21 20 23 22 24 25 25 25 24 25 26 24 23 20 19 17 16 10 2 16 13 5 5 3 2 6 5 7 10 8 8 7 9
21 21 23 23 21 19 20 19 18 16 18 18 19 21 21 24 26 26 25 28 27 29 30 27 26 25 19 18 14 12 11 10 12 5 4 7 5 3 6 7 11 9 10 11 12
21 22 23 24 23 22 20 21 19 18 20 20 22 26 24 23 27 27 28 31 30 31 33 31 30 27 21 18 16 12 15 10 12 8 6 9 5 5 4 6 8 9 9 14 17
20 23 23 25 26 23 23 22 19 20 21 23 23 24 28 27 29 30 30 32 33 33 36 37 34 30 26 23 20 16 14 13 10 5 8 9 4 4 5 8 9 8 11 11 18
20 19 22 25 26 26 26 21 22 21 19 25 26 25 26 28 30 32 33 33 37 38 38 38 37 33 30 27 23 20 11 9 11 12 8 7 10 7 4 4 7 9 14 14 21
18 18 20 24 27 29 29 25 22 21 21 21 27 26 27 29 31 32 34 34 37 43 40 39 40 35 33 29 23 15 13 11 15 13 6 3 8 3 4 6 11 13 16 22 23
19 18 20 23 27 31 30 28 24 21 22 22 27 30 30 29 30 32 34 38 41 44 39 37 40 35 29 26 24 17 15 14 16 12 2 3 10 7 12 9 12 15 20 25 23
19 20 22 23 26 32 31 30 27 24 24 25 27 32 33 28 29 34 35 37 40 43 39 38 36 37 33 31 27 20 16 16 17 10 8 6 5 9 11 11 15 14 19 21 23
22 22 23 24 28 31 30 31 29 29 26 28 26 30 32 31 32 34 35 36 36 42 40 36 34 42 39 32 30 25 19 14 12 13 20 22 18 15 16 19 19 21 20 18 27
23 24 26 25 28 30 28 31 31 30 29 28 29 31 32 31 33 33 34 36 37 39 40 41 41 43 42 37 33 28 21 20 20 22 26 25 26 20 19 20 21 18 16 25 32
26 23 25 28 29 27 28 30 34 32 30 30 30 32 30 30 31 33 33 40 34 33 40 39 41 43 44 40 38 29 28 28 28 31 34 29 31 22 18 16 19 14 17 26 29
29 26 25 28 28 27 29 32 36 35 30 30 32 32 32 28 33 36 35 37 39 39 38 43 44 45 43 43 41 36 34 31 33 34 38 30 30 13 19 16 18 17 19 23 25
33 29 28 30 29 27 32 36 37 38 33 33 32 33 32 28 31 36 37 37 40 42 41 42 44 42 43 46 46 42 36 38 37 38 38 34 31 21 17 19 18 18 22 25 26
37 31 30 34 30 31 35 38 38 34 37 33 34 32 31 33 34 30 35 36 38 36 37 39 41 37 41 45 45 44 41 41 42 39 34 32 28 15 17 16 17 21 23 20 21
39 36 36 35 31 32 36 39 36 37 37 36 31 35 32 38 37 36 36 33 33 32 32 36 38 36 35 39 44 46 45 37 40 39 36 34 26 20 18 17 19 23 22 20 23
36 36 37 35 34 36 39 39 38 37 36 37 35 34 33 35 39 40 36 34 32 29 28 30 32 35 33 37 43 45 39 38 42 41 39 37 31 22 19 19 21 24 24 23 27
36 38 36 35 36 38 39 39 36 39 39 39 37 36 35 38 39 37 34 30 31 28 30 30 32 33 35 35 36 39 42 44 45 43 37 35 24 22 21 20 22 26 27 26 28
38 38 36 37 37 37 37 34 39 43 42 40 39 39 35 37 38 37 35 31 30 31 30 26 28 33 34 30 33 34 35 38 42 38 32 30 26 25 23 18 21 25 26 28 29
32 36 37 39 36 36 36 34 43 45 44 43 43 41 37 37 36 33 31 29 29 30 29 29 30 31 35 34 34 35 33 33 34 32 33 32 29 23 23 22 22 24 28 29 31
31 34 36 38 36 37 36 37 45 49 48 45 44 41 41 37 33 33 31 35 34 28 26 31 28 30 30 27 27 29 26 28 31 32 32 35 32 31 23 18 20 25 30 31 33
28 33 33 34 34 35 35 38 45 50 50 48 48 44 41 37 32 29 34 34 31 27 32 32 30 29 26 27 28 28 28 30 32 32 31 29 31 29 19 20 20 25 28 32 36
26 32 37 36 31 32 33 38 46 53 54 50 50 49 43 39 35 33 35 36 35 35 34 33 30 32 31 25 27 30 30 33 36 35 34 32 31 29 22 22 24 28 32 35 36
25 32 37 36 32 32 33 38 47 51 53 51 55 52 47 43 38 34 32 37 36 40 37 34 33 30 25 24 25 34 33 32 32 34 36 32 31 28 26 25 24 25 31 34 38
Wind_Direction
265 267 262 261 261 262 238 227 232 238 240 256 209 196 196 198 195 196 192 190 186 184 176 179 174 166 164 159 145 150 148 130 128 139 123 99 98 110 108 107 102 65 26 10 354
258 259 259 251 250 258 244 226 230 233 246 232 207 201 197 200 196 197 194 190 194 186 185 186 186 173 169 174 165 140 156 127 115 128 174 109 92 99 99 94 93 45 19 3 355
248 253 254 249 240 244 245 235 224 231 242 220 206 207 205 202 196 200 195 189 197 193 193 191 201 181 172 178 174 155 162 169 135 52 29 87 81 85 95 116 85 68 25 17 1
244 242 248 247 239 238 237 235 223 229 227 216 193 205 205 202 200 204 196 196 195 199 198 200 206 207 182 182 191 184 185 193 187 225 9 52 74 90 102 88 57 45 33 355 350
244 238 241 242 240 235 235 235 227 228 228 220 204 201 205 202 202 206 200 201 198 197 198 198 204 209 219 199 197 169 184 199 203 196 358 353 356 102 92 32 38 35 359 348 333
248 238 236 240 235 235 233 232 233 219 225 225 214 202 212 201 204 205 205 202 204 196 193 196 202 216 227 221 218 180 174 201 195 169 292 330 304 51 84 44 14 3 336 323 325
251 241 236 234 237 231 235 229 227 223 218 223 219 211 212 204 202 205 206 207 203 200 192 197 208 220 229 235 241 211 192 218 220 214 264 314 299 349 350 13 0 346 330 327 326
255 243 234 233 234 231 234 230 222 221 213 217 218 219 215 208 200 204 209 207 204 206 198 204 208 213 225 233 239 243 217 217 236 245 261 282 231 270 13 0 359 338 321 327 334
259 252 239 232 231 233 230 230 220 222 216 215 216 220 218 214 203 203 209 208 205 203 207 211 210 211 227 230 236 245 231 240 293 283 282 239 206 231 323 339 322 313 300 296 317
258 252 243 233 229 231 233 224 226 214 216 211 222 222 218 217 210 205 207 210 211 206 209 216 213 216 226 234 236 250 262 273 286 254 322 242 195 202 258 300 285 293 305 302 300
256 250 243 237 228 228 231 227 223 221 210 212 218 221 223 221 219 207 209 212 212 211 214 221 219 224 222 235 241 230 230 249 266 263 326 48 222 239 249 311 286 305 305 303 318
257 251 241 233 231 229 224 225 221 219 216 209 214 221 224 222 221 213 214 215 216 215 219 223 224 217 211 226 239 238 235 253 265 288 307 270 232 254 277 278 280 299 316 327 311
261 254 241 235 230 231 225 224 221 219 220 214 213 220 222 220 220 218 216 215 218 220 222 223 225 218 215 220 236 246 251 268 284 293 287 291 286 265 275 288 293 300 317 331 330
257 250 248 235 234 233 224 222 225 219 216 223 209 218 215 220 222 221 217 215 215 220 223 224 223 220 220 220 228 238 248 261 260 271 273 266 269 262 281 297 298 309 322 325 326
255 246 246 242 235 232 224 223 225 221 217 220 217 218 217 218 217 223 221 216 219 218 221 226 227 222 223 229 228 229 240 248 252 260 265 264 266 277 277 297 299 318 313 320 326
245 245 244 248 244 233 221 220 222 219 215 217 222 220 215 217 213 214 220 218 219 217 219 222 226 225 221 225 227 230 229 237 244 251 259 269 275 282 287 296 300 310 301 310 318
245 240 246 241 241 232 224 221 219 215 213 217 219 219 213 210 214 214 220 220 224 223 217 220 226 224 221 224 225 232 229 232 243 250 260 268 276 295 291 284 302 311 300 309 312
244 242 244 238 231 227 223 222 217 210 216 218 218 221 215 209 207 210 216 218 221 225 223 226 226 226 222 226 232 230 234 238 245 249 258 262 275 315 285 284 296 297 311 318 331
243 240 240 233 229 221 221 223 216 213 215 217 215 219 214 215 211 212 212 218 224 227 230 229 227 225 225 227 229 230 233 238 243 254 263 272 279 279 283 277 288 296 301 318 321
240 234 234 230 229 222 221 221 216 213 216 216 215 216 214 218 220 217 217 217 220 220 222 226 229 229 227 222 224 226 233 238 243 257 269 277 280 291 280 286 282 293 299 311 318
241 236 231 227 227 221 219 220 214 211 214 215 212 215 214 216 216 219 218 213 217 216 220 223 223 223 224 223 231 232 235 237 243 248 269 273 277 298 279 283 288 293 302 308 314
239 234 233 226 226 218 225 216 208 208 210 213 210 210 214 218 221 221 211 211 216 222 224 223 223 221 226 220 221 227 231 236 246 249 262 274 282 289 284 276 288 296 302 307 309
247 235 228 226 221 217 220 215 205 203 205 209 211 210 209 219 221 221 213 206 215 224 225 222 218 213 222 220 218 229 235 235 240 247 259 269 285 279 276 265 274 288 295 300 305
248 238 227 220 215 218 216 212 202 200 202 205 209 209 207 213 217 219 204 209 211 216 216 220 210 215 227 237 229 226 226 235 241 251 258 266 276 284 293 297 277 279 287 297 300
251 235 219 219 214 215 214 210 202 200 201 202 206 208 206 206 206 201 204 208 211 211 210 218 214 206 212 214 217 225 228 235 243 250 258 264 270 279 308 308 288 282 292 298 301
250 233 218 211 211 215 214 208 202 200 200 201 204 207 205 204 201 199 199 197 196 197 206 220 210 207 203 201 220 228 229 234 241 249 256 262 268 285 301 304 296 304 303 303 301
246 231 221 205 203 209 210 208 205 201 200 205 203 207 203 206 203 202 198 196 195 194 202 214 212 207 200 200 208 221 226 234 241 247 255 264 270 282 292 305 312 311 302 304 307
Height
5838 5838 5838 5839 5840 5840 5841 5843 5844 5845 5846 5846 5848 5851 5854 5857 5861 5864 5867 5870 5872 5876 5880 5882 5885 5888 5891 5894 5898 5900 5902 5902 5901 5902 5901 5900 5901 5901 5902 5903 5902 5902 5901 5900 5899
5833 5834 5834 5835 5837 5837 5838 5839 5842 5843 5844 5844 5845 5849 5852 5856 5859 5863 5866 5869 5872 5876 5880 5883 5885 5889 5891 5895 5898 5900 5902 5903 5904 5904 5904 5901 5902 5903 5903 5903 5902 5902 5901 5900 5898
5828 5829 5830 5831 5833 5834 5835 5836 5838 5841 5842 5843 5844 5846 5850 5854 5857 5861 5864 5867 5871 5874 5877 5879 5881 5887 5892 5895 5898 5900 5901 5903 5903 5905 5904 5901 5902 5903 5903 5903 5902 5901 5901 5899 5898
5822 5824 5824 5827 5828 5830 5831 5833 5835 5838 5840 5841 5842 5845 5848 5853 5857 5859 5862 5865 5869 5873 5877 5879 5881 5884 5890 5895 5897 5900 5901 5903 5902 5905 5905 5903 5902 5903 5904 5905 5902 5901 5900 5899 5898
5817 5819 5819 5821 5824 5825 5827 5829 5832 5835 5838 5839 5840 5842 5846 5851 5854 5857 5860 5864 5868 5871 5876 5879 5881 5883 5886 5892 5894 5899 5899 5900 5902 5903 5904 5903 5902 5901 5903 5903 5901 5900 5899 5897 5896
5812 5813 5815 5815 5818 5820 5822 5824 5827 5831 5834 5836 5838 5839 5844 5849 5851 5855 5858 5862 5866 5870 5874 5877 5879 5880 5884 5888 5892 5896 5899 5899 5901 5901 5902 5902 5902 5899 5899 5901 5900 5899 5897 5896 5894
5806 5807 5809 5810 5812 5815 5817 5819 5822 5826 5829 5832 5835 5838 5841 5846 5849 5852 5856 5859 5863 5867 5872 5874 5875 5878 5882 5885 5888 5893 5898 5899 5901 5901 5902 5900 5899 5897 5897 5900 5900 5900 5899 5899 5897
5800 5801 5803 5805 5806 5809 5812 5813 5817 5820 5823 5828 5831 5834 5838 5843 5846 5849 5853 5856 5859 5864 5868 5869 5872 5877 5880 5882 5886 5889 5893 5898 5901 5901 5901 5900 5898 5896 5895 5897 5899 5901 5900 5899 5897
5794 5796 5798 5799 5801 5804 5805 5810 5812 5816 5819 5824 5828 5831 5835 5838 5841 5845 5849 5852 5855 5861 5864 5866 5870 5874 5877 5880 5883 5886 5891 5894 5897 5897 5895 5895 5895 5896 5896 5898 5897 5897 5897 5899 5895
5788 5790 5792 5793 5795 5797 5799 5805 5809 5812 5816 5819 5823 5829 5832 5834 5838 5842 5846 5849 5853 5856 5861 5864 5867 5871 5873 5875 5882 5887 5889 5892 5893 5893 5891 5891 5892 5893 5896 5897 5897 5897 5894 5893 5892
5781 5784 5786 5787 5789 5790 5794 5799 5805 5809 5811 5814 5817 5821 5825 5829 5834 5837 5841 5845 5848 5852 5858 5862 5865 5867 5873 5876 5879 5884 5887 5889 5890 5890 5889 5889 5891 5890 5893 5894 5895 5895 5893 5892 5888
5775 5777 5779 5780 5782 5784 5787 5792 5799 5803 5805 5808 5811 5815 5819 5824 5829 5833 5838 5843 5846 5850 5854 5858 5863 5869 5871 5873 5876 5880 5883 5885 5887 5888 5886 5889 5889 5889 5889 5891 5891 5892 5890 5889 5886
5769 5770 5771 5774 5775 5777 5783 5786 5792 5795 5800 5804 5807 5809 5815 5820 5824 5829 5834 5838 5843 5846 5851 5855 5864 5865 5867 5871 5873 5877 5880 5883 5885 5884 5884 5885 5887 5888 5889 5891 5891 5889 5887 5885 5882
5761 5763 5763 5766 5769 5771 5777 5781 5784 5788 5795 5799 5802 5803 5808 5815 5819 5823 5828 5833 5837 5843 5848 5851 5856 5861 5865 5868 5872 5875 5879 5882 5883 5883 5884 5884 5883 5886 5886 5887 5885 5884 5882 5881 5876
5753 5755 5756 5758 5761 5764 5770 5774 5775 5783 5788 5793 5795 5797 5805 5811 5815 5819 5823 5828 5833 5839 5845 5849 5851 5857 5861 5867 5869 5875 5878 5879 5879 5879 5878 5880 5879 5884 5883 5883 5881 5880 5878 5876 5871
5742 5747 5748 5750 5753 5758 5760 5764 5768 5775 5781 5785 5788 5792 5798 5803 5806 5811 5815 5823 5827 5832 5838 5841 5846 5851 5858 5863 5866 5869 5872 5875 5874 5873 5872 5877 5877 5881 5881 5880 5877 5876 5874 5871 5868
5732 5735 5739 5740 5746 5750 5752 5755 5761 5766 5774 5777 5780 5786 5791 5795 5799 5804 5810 5815 5821 5826 5831 5837 5840 5845 5853 5855 5859 5863 5867 5867 5867 5867 5868 5871 5872 5875 5878 5875 5873 5871 5870 5866 5863
5720 5725 5728 5729 5736 5741 5744 5747 5753 5762 5765 5770 5775 5779 5787 5788 5791 5797 5803 5809 5814 5821 5827 5832 5835 5840 5846 5850 5855 5858 5861 5863 5861 5863 5867 5866 5866 5872 5871 5870 5868 5866 5865 5862 5858
5707 5713 5715 5720 5727 5732 5736 5740 5747 5753 5759 5764 5769 5774 5780 5782 5786 5790 5796 5805 5810 5815 5822 5826 5831 5836 5841 5847 5850 5852 5853 5861 5859 5859 5860 5862 5864 5866 5866 5864 5864 5863 5862 5857 5854
5695 5700 5704 5711 5716 5721 5726 5733 5740 5746 5752 5758 5763 5768 5774 5778 5781 5784 5790 5798 5804 5811 5816 5821 5827 5830 5835 5838 5840 5844 5854 5854 5853 5854 5854 5856 5858 5860 5860 5859 5859 5857 5857 5853 5849
5686 5689 5695 5700 5705 5712 5716 5724 5733 5739 5744 5750 5756 5762 5767 5770 5774 5780 5787 5795 5798 5804 5808 5813 5818 5824 5827 5832 5837 5842 5844 5846 5848 5849 5852 5851 5854 5856 5855 5854 5854 5853 5850 5848 5844
5675 5679 5686 5690 5698 5705 5709 5715 5723 5730 5735 5743 5750 5755 5761 5766 5770 5776 5782 5789 5793 5798 5804 5810 5814 5817 5823 5826 5830 5834 5837 5841 5843 5848 5847 5847 5850 5851 5851 5849 5848 5847 5845 5842 5839
5666 5670 5676 5681 5689 5696 5700 5707 5713 5722 5728 5735 5742 5748 5755 5759 5766 5772 5781 5785 5788 5791 5799 5803 5806 5811 5815 5820 5823 5828 5833 5837 5839 5842 5842 5842 5845 5845 5844 5843 5843 5841 5839 5837 5834
5658 5662 5666 5672 5680 5686 5691 5698 5706 5713 5721 5728 5737 5742 5748 5755 5761 5767 5775 5776 5780 5787 5794 5795 5801 5806 5813 5820 5822 5825 5829 5832 5833 5835 5837 5838 5839 5840 5840 5839 5837 5836 5834 5832 5828
5649 5654 5660 5666 5672 5678 5685 5692 5699 5706 5714 5722 5729 5736 5744 5751 5758 5764 5769 5774 5779 5784 5787 5792 5798 5802 5808 5812 5815 5820 5824 5826 5828 5830 5831 5834 5833 5835 5836 5834 5833 5831 5829 5827 5824
5642 5647 5652 5657 5665 5672 5679 5685 5690 5698 5708 5715 5723 5728 5738 5747 5754 5759 5764 5769 5774 5781 5784 5788 5795 5798 5801 5805 5810 5814 5817 5818 5822 5824 5826 5827 5828 5830 5832 5830 5828 5827 5824 5820 5817
5634 5638 5644 5650 5658 5665 5671 5679 5684 5692 5704 5710 5717 5723 5733 5741 5750 5757 5762 5767 5771 5775 5781 5785 5792 5795 5799 5802 5804 5807 5811 5814 5817 5820 5822 5822 5824 5825 5826 5824 5823 5822 5818 5813 5809